sat.trackr.live / text

‹ back to catalog

STARLINK-2135

NORAD 47408 · 2021-005BM

PAYLOAD ACTIVE UNKNOWN

§ Identity

Operator
Country
US
Launch date
2021-01-20
Launch site
AFETR
Launch vehicle
Mass (kg)
RCS (m²)

Purposes: comms

External: N2YO · Heavens-Above · Gunter

§ Orbital elements

Epoch: 2026-05-25T06:00:02.000160Z

Period
94.01 min
Inclination
53.1581°
Eccentricity
0.0001210
Mean motion
15.31677142 rev/d
Perigee alt
470.0 km
Apogee alt
471.6 km
Semi-major
6,848.9 km
B*
5.5006e-4
RAAN
41.1079°
Arg perigee
79.8820°
Mean anomaly
123.9718°
Rev number
581

§ Raw data

STARLINK-21351 47408U 21005BM  26145.25002315  .00016730  00000+0  55006-3 0  99922 47408  53.1581  41.1079 0001210  79.8820 123.9718 15.31677142  5810

JSON: /api/v1/satellites/47408 · /tle

For live sub-satellite position, see the globe view (requires WebGL).

§ Visibility from observer

Set your observer location to see the next 7 days of passes ≥ 10°. The values pass through the URL so the page stays shareable.

No JS? Fill the form by hand. The geolocation button needs JavaScript.